JY1SAT (JO-97)

Last updated on Tue Aug 25 2026 00:03:14 GMT+0000 (Coordinated Universal Time)

1 43803U 18099AX 26236.62279797 .00015872 00000+0 45910-3 0 9997 2 43803 97.4076 299.7724 0006049 42.5314 317.6397 15.35682704424121
UTC large
Height (km)
Speed (km/s)
/
Latitude / Longitude
Inclination (degrees)
Orbital Period (minutes)
Azimuth
Elevation
Range (km)
Doppler Factor

Next 0 passes for location: London (51.5072 / 0.1276)

No passes found over London.
JY1SAT (JO-97)